K9UO Weather Reports


time (UTC)temp
C
wind
direction
speed
KPH
gust
KPH
rain 1hr
cm
rain 24hr
cm
rain mn
cm
humidity
%
barometer
mb
20260507180000 12 327 12.9 29.0 0.00 0.00 0.00 46 1014.5
20260507174608 12 360 14.5 24.1 0.00 0.00 0.00 47 1014.7
20260507173103 12 270 9.7 22.5 0.00 0.00 0.00 48 1014.9
20260507171611 11 304 14.5 24.1 0.00 0.00 0.00 47 1015.1
20260507170057 11 338 12.9 24.1 0.00 0.00 0.00 46 1015.2
20260507164605 11 338 14.5 25.7 0.00 0.00 0.00 49 1015.4
20260507163050 11 21 12.9 29.0 0.00 0.00 0.00 47 1015.5
20260507161550 11 19 14.5 24.1 0.00 0.00 0.00 47 1015.4
20260507160045 10 322 8.0 20.9 0.00 0.00 0.00 50 1015.5
20260507154544 10 350 8.0 17.7 0.00 0.00 0.00 51 1015.4
20260507153047 10 333 14.5 19.3 0.00 0.00 0.00 50 1015.5
20260507151542 9 10 9.7 19.3 0.00 0.00 0.00 52 1015.3
20260507150037 9 227 6.4 19.3 0.00 0.00 0.00 53 1015.3
20260507144536 8 279 8.0 19.3 0.00 0.00 0.00 51 1015.4
20260507143033 8 284 6.4 20.9 0.00 0.00 0.00 53 1015.5
20260507141532 8 335 6.4 17.7 0.00 0.00 0.00 54 1015.5
20260507140031 8 360 4.8 14.5 0.00 0.00 0.00 54 1015.3
20260507134536 8 258 8.0 16.1 0.00 0.00 0.00 54 1015.4
20260507133029 7 242 6.4 14.5 0.00 0.00 0.00 55 1015.4
20260507131534 7 360 4.8 11.3 0.00 0.00 0.00 54 1015.3
20260507130026 7 21 6.4 14.5 0.00 0.00 0.00 55 1015.2
20260507124523 6 360 8.0 14.5 0.00 0.00 0.00 52 1015.3
20260507123021 6 343 3.2 9.7 0.00 0.00 0.00 46 1015.2
20260507121520 5 216 1.6 8.0 0.00 0.00 0.00 42 1015.2
20260507120019 5 232 1.6 6.4 0.00 0.00 0.00 44 1015.2
20260507114525 5 304 1.6 4.8 0.00 0.00 0.00 43 1015.2
20260507113017 5 265 1.6 8.0 0.00 0.00 0.00 41 1015.2
20260507111520 5 338 1.6 6.4 0.00 0.00 0.00 34 1015.0
20260507110014 4 317 1.6 3.2 0.00 0.00 0.00 31 1014.8
20260507104511 4 311 0.0 3.2 0.00 0.03 0.00 32 1014.8
20260507103011 4 329 0.0 6.4 0.00 0.03 0.00 32 1014.8
20260507101517 4 266 1.6 6.4 0.00 0.03 0.00 32 1014.7
20260507100008 4 282 1.6 6.4 0.00 0.03 0.00 31 1014.7
20260507094507 4 285 0.0 3.2 0.00 0.03 0.00 31 1014.7
20260507093006 4 285 0.0 3.2 0.00 0.03 0.00 30 1014.7
20260507091504 5 281 0.0 1.6 0.00 0.03 0.00 32 1014.8
20260507090001 5 282 0.0 1.6 0.00 0.03 0.00 35 1014.7
20260507084601 5 283 0.0 4.8 0.00 0.03 0.00 37 1014.5
20260507083058 5 252 1.6 6.4 0.00 0.03 0.00 38 1014.5
20260507081557 5 271 1.6 6.4 0.00 0.03 0.00 39 1014.5
20260507080056 6 290 3.2 8.0 0.00 0.03 0.00 39 1014.5
20260507074554 6 309 1.6 6.4 0.00 0.03 0.00 41 1014.5
20260507073052 6 257 0.0 6.4 0.00 0.03 0.00 42 1014.4
20260507071555 6 320 0.0 3.2 0.00 0.03 0.00 44 1014.5
20260507070059 6 304 1.6 6.4 0.00 0.03 0.00 45 1014.4
20260507064546 6 313 1.6 6.4 0.00 0.05 0.00 45 1014.5
20260507063043 7 272 1.6 6.4 0.00 0.05 0.00 46 1014.6
20260507061541 7 260 1.6 6.4 0.00 0.05 0.00 45 1014.6
20260507060048 7 275 1.6 8.0 0.00 0.05 0.00 43 1014.6
20260507054537 7 310 0.0 3.2 0.00 0.08 0.00 40 1014.7
20260507053036 7 311 0.0 0.0 0.00 0.08 0.00 40 1014.5
20260507051540 7 317 0.0 1.6 0.00 0.08 0.00 40 1014.6
20260507050039 7 314 0.0 6.4 0.00 0.08 0.00 41 1014.5
20260507044531 8 326 1.6 3.2 0.00 0.13 0.00 40 1014.5
20260507043029 8 340 0.0 6.4 0.00 0.13 0.00 38 1014.6
20260507041530 8 257 0.0 0.0 0.00 0.13 0.00 35 1014.5
20260507040028 8 255 0.0 1.6 0.00 0.13 0.00 34 1014.5
20260507034534 8 243 0.0 1.6 0.00 0.18 0.13 36 1014.5
20260507033019 8 243 0.0 1.6 0.00 0.18 0.13 38 1014.6
20260507031514 8 243 0.0 3.2 0.00 0.18 0.13 39 1014.6
20260507030017 8 244 0.0 3.2 0.00 0.18 0.13 42 1014.5
20260507024505 9 244 0.0 3.2 0.00 0.23 0.13 46 1014.5
20260507023001 9 244 0.0 3.2 0.00 0.23 0.13 49 1014.5
20260507021600 9 257 0.0 1.6 0.00 0.23 0.13 49 1014.6
20260507020054 9 257 0.0 3.2 0.00 0.23 0.13 45 1014.4
20260507014550 10 257 0.0 3.2 0.00 0.33 0.13 47 1014.4
20260507013043 10 257 0.0 3.2 0.00 0.33 0.13 50 1014.3
20260507011544 10 257 0.0 1.6 0.00 0.33 0.13 55 1014.1
20260507010036 10 257 0.0 1.6 0.00 0.33 0.13 57 1013.7
20260507004530 11 257 0.0 3.2 0.00 0.43 0.13 57 1013.6
20260507003026 11 257 0.0 3.2 0.00 0.43 0.13 56 1013.4
20260507001523 11 226 0.0 6.4 0.00 0.43 0.13 55 1013.5
20260507000018 12 281 4.8 9.7 0.00 0.43 0.13 53 1013.4
20260506234516 12 295 4.8 11.3 0.00 0.51 0.13 52 1013.3
20260506233015 12 232 6.4 11.3 0.00 0.51 0.13 52 1013.3
20260506231512 12 223 3.2 9.7 0.00 0.51 0.13 52 1013.4
20260506230010 12 24 8.0 11.3 0.00 0.51 0.13 55 1013.5
20260506224501 12 245 3.2 9.7 0.00 0.56 0.13 53 1013.6
20260506223101 12 238 8.0 14.5 0.00 0.56 0.13 53 1013.9
20260506221553 12 239 6.4 12.9 0.00 0.56 0.13 53 1013.9
20260506220051 12 275 1.6 11.3 0.00 0.56 0.13 53 1013.8
20260506214544 12 314 4.8 12.9 0.00 0.61 0.13 54 1013.6
20260506213040 12 351 3.2 12.9 0.00 0.61 0.13 54 1013.7
20260506211546 12 350 6.4 11.3 0.00 0.61 0.13 52 1013.5
20260506210035 12 18 8.0 14.5 0.00 0.61 0.13 52 1013.4
20260506204529 12 284 6.4 12.9 0.00 0.66 0.13 54 1013.3
20260506203027 12 351 8.0 12.9 0.00 0.66 0.13 53 1013.4
20260506201525 12 15 6.4 12.9 0.00 0.66 0.13 53 1013.5
20260506200017 12 9 9.7 17.7 0.00 0.66 0.13 52 1013.6
20260506194511 12 324 6.4 16.1 0.00 0.86 0.13 51 1013.7
20260506193008 12 314 3.2 14.5 0.00 0.86 0.13 53 1013.6
20260506191502 12 265 3.2 11.3 0.00 0.86 0.13 53 1013.5
20260506190059 12 254 4.8 12.9 0.00 0.86 0.13 52 1013.4
20260506184554 11 309 0.0 12.9 0.00 0.86 0.13 52 1013.6
20260506183049 11 13 3.2 12.9 0.00 0.86 0.13 53 1013.6
20260506181545 11 260 3.2 11.3 0.00 0.86 0.13 53 1013.7